Location: Bidart
(43.4376°N, 1.5913°W)
Time: 22:35:02
(UTC+00:00)

Cosmos 2360 Rocket - Pass Details

Date: 19 May 2025
Orbit: 834 x 842 km, 71.0° (Epoch: 12 June)

Event Time Altitude Azimuth Distance (km) Brightness Sun altitude
Rises 23:10:09 0° 341° (NNW) 3,392 6.7 -25.4°
Reaches altitude 10° 23:12:51 10° 351° (N) 2,454 5.7 -25.5°
Maximum altitude 23:17:55 34° 55° (NE) 1,356 3.4 -25.7°
Enters shadow 23:19:45 27° 91° (E) 1,543 3.4 -25.8°
